Clearfield, PA

5:26 AM EDT on August 24, 2017 (GMT -0400)
Clearfield-Lawrence

Weather History for KFIG - September, 2013

Change the Weather History Date:

Saturday, September 21, 2013

  Actual Average (KDUJ) Record (KDUJ)
Temperature  
Mean Temperature 60 °F -  
Max Temperature 66 °F 68 °F 84 °F (1965)
Min Temperature 55 °F 51 °F 36 °F (1962)
Degree Days  
Heating Degree Days 4    
Growing Degree Days 10 (Base 50)    
Moisture  
Dew Point 59 °F    
Average Humidity 97    
Maximum Humidity 100    
Minimum Humidity 88    
Precipitation  
Precipitation 0.52 in - - ()
Sea Level Pressure  
Sea Level Pressure 29.76 in    
Wind  
Wind Speed 3 mph (West)    
Max Wind Speed 14 mph    
Max Gust Speed 23 mph    
Visibility 8 miles    
Events Rain    
Averages and records for this station are not official NWS values.
T = Trace of Precipitation, MM = Missing Value Source: NWS Daily Summary

Daily Weather History Graph

Daily Weather History Graph

Search for Another Location

Airport or City:

Trip Planner

Search our weather history database for the weather conditions in past years. The results will help you decide how hot, cold, wet, or windy it might be!

Date:

Astronomy

Sep. 21, 2013 Rise Set
Actual Time 7:00 AM EDT 7:12 PM EDT
Civil Twilight 6:32 AM EDT 7:39 PM EDT
Nautical Twilight 6:00 AM EDT 8:11 PM EDT
Astronomical Twilight 5:27 AM EDT 8:44 PM EDT
Moon 8:20 PM EDT (9/21) 9:18 AM EDT (9/21)
Length of Visible Light 13h 06m
Length of Day
12h 11m
Waning Gibbous, 94% of the Moon is Illuminated
Sep 21
Waning Gibbous
Sep 26
Last Quarter
Oct 4
New
Oct 11
First Quarter
Oct 18
Full

Hourly Weather History & Observations

Time (EDT) Temp. Dew Point Humidity Pressure Visibility Wind Dir Wind Speed Gust Speed Precip Events Conditions
12:54 AM 63.0 °F 60.1 °F 90% 29.89 in 10.0 mi Calm Calm - N/A   Partly Cloudy
1:54 AM 62.1 °F 60.1 °F 93% 29.87 in 10.0 mi Calm Calm - N/A   Overcast
2:54 AM 60.1 °F 59.0 °F 96% 29.85 in 9.0 mi North 4.6 mph - N/A   Partly Cloudy
3:54 AM 61.0 °F 60.1 °F 97% 29.83 in 10.0 mi North 3.5 mph - N/A   Overcast
4:32 AM 60.8 °F 60.8 °F 100% 29.85 in 10.0 mi North 3.5 mph - N/A   Overcast
4:54 AM 62.1 °F 60.1 °F 93% 29.82 in 10.0 mi Calm Calm - N/A   Overcast
5:09 AM 62.6 °F 60.8 °F 94% 29.84 in 10.0 mi Calm Calm - 0.00 in Rain Light Rain
5:16 AM 62.6 °F 60.8 °F 94% 29.84 in 10.0 mi NE 3.5 mph - 0.00 in   Mostly Cloudy
5:54 AM 61.0 °F 60.1 °F 97% 29.80 in 9.0 mi NE 3.5 mph - 0.00 in   Overcast
6:54 AM 64.0 °F 62.1 °F 93% 29.79 in 10.0 mi Calm Calm - N/A   Overcast
7:08 AM 62.6 °F 62.6 °F 100% 29.82 in 7.0 mi South 3.5 mph - 0.01 in Rain Light Rain
7:54 AM 63.0 °F 62.1 °F 97% 29.78 in 5.0 mi Calm Calm - 0.07 in   Overcast
8:54 AM 64.0 °F 63.0 °F 96% 29.78 in 6.0 mi Variable 3.5 mph - N/A   Overcast
9:54 AM 66.0 °F 63.0 °F 90% 29.76 in 8.0 mi Calm Calm - N/A   Overcast
10:23 AM 66.2 °F 62.6 °F 88% 29.77 in 10.0 mi South 4.6 mph - N/A   Overcast
10:54 AM 64.9 °F 63.0 °F 93% 29.74 in 9.0 mi Variable 4.6 mph - N/A   Overcast
11:54 AM 64.9 °F 62.1 °F 90% 29.72 in 10.0 mi Variable 4.6 mph - N/A   Overcast
12:54 PM 64.9 °F 63.0 °F 93% 29.69 in 5.0 mi Variable 5.8 mph - 0.00 in Rain Light Rain
1:32 PM 64.4 °F 62.6 °F 94% 29.69 in 3.0 mi Variable 5.8 mph - 0.03 in Rain Rain
1:54 PM 62.1 °F 60.1 °F 93% 29.70 in 5.0 mi WNW 9.2 mph 18.4 mph 0.05 in Rain Rain
1:59 PM 60.8 °F 59.0 °F 94% 29.71 in 1.8 mi NW 13.8 mph 19.6 mph 0.12 in Rain Heavy Rain
2:08 PM 60.8 °F 59.0 °F 94% 29.70 in 2.0 mi NNW 12.7 mph 23.0 mph 0.15 in Rain Light Rain
2:15 PM 60.8 °F 59.0 °F 94% 29.70 in 10.0 mi NNW 11.5 mph 20.7 mph 0.15 in Rain Light Rain
2:54 PM 60.1 °F 57.9 °F 93% 29.70 in 7.0 mi West 6.9 mph - 0.20 in Rain Light Rain
3:54 PM 59.0 °F 57.9 °F 96% 29.73 in 6.0 mi West 3.5 mph - 0.06 in Rain Light Rain
4:54 PM 60.1 °F 59.0 °F 96% 29.71 in 10.0 mi Calm Calm - 0.04 in Rain Light Rain
5:32 PM 60.8 °F 60.8 °F 100% 29.71 in 7.0 mi Calm Calm - 0.01 in Rain Light Rain
5:54 PM 59.0 °F 59.0 °F 100% 29.70 in 6.0 mi Calm Calm - 0.03 in Rain Light Rain
6:37 PM 59.0 °F 59.0 °F 100% 29.72 in 8.0 mi Calm Calm - 0.04 in Rain Light Rain
6:54 PM 59.0 °F 59.0 °F 100% 29.70 in 10.0 mi Calm Calm - 0.04 in   Overcast
7:54 PM 59.0 °F 59.0 °F 100% 29.73 in 10.0 mi SW 3.5 mph - N/A   Overcast
8:03 PM 59.0 °F 59.0 °F 100% 29.74 in 10.0 mi SW 5.8 mph - N/A   Overcast
8:26 PM 57.2 °F 57.2 °F 100% 29.75 in 8.0 mi SW 5.8 mph - 0.00 in Rain Light Rain
8:42 PM 57.2 °F 57.2 °F 100% 29.75 in 3.0 mi SW 6.9 mph - 0.02 in Rain Rain
8:54 PM 57.9 °F 57.9 °F 100% 29.75 in 10.0 mi SW 6.9 mph - 0.03 in Rain Light Rain
9:01 PM 57.2 °F 57.2 °F 100% 29.76 in 10.0 mi SW 5.8 mph - 0.00 in   Overcast
9:12 PM 57.2 °F 57.2 °F 100% 29.76 in 10.0 mi WSW 5.8 mph 16.1 mph 0.00 in   Overcast
9:54 PM 57.0 °F 57.0 °F 100% 29.75 in 10.0 mi WSW 4.6 mph - 0.00 in   Scattered Clouds
10:19 PM 55.4 °F 55.4 °F 100% 29.77 in 10.0 mi Calm Calm - N/A   Mostly Cloudy
10:42 PM 55.4 °F 55.4 °F 100% 29.77 in 10.0 mi Calm Calm - N/A   Scattered Clouds
10:54 PM 55.0 °F 55.0 °F 100% 29.76 in 10.0 mi Calm Calm - N/A   Scattered Clouds
11:06 PM 55.4 °F 55.4 °F 100% 29.77 in 10.0 mi SW 3.5 mph - N/A   Mostly Cloudy
11:13 PM 55.4 °F 55.4 °F 100% 29.77 in 10.0 mi Calm Calm - N/A   Mostly Cloudy
11:29 PM 55.4 °F 55.4 °F 100% 29.77 in 10.0 mi West 3.5 mph - N/A   Overcast
11:54 PM 55.0 °F 55.0 °F 100% 29.77 in 10.0 mi Calm Calm - N/A   Mostly Cloudy